owner,sensor,date,latitude,longitude,vertical_datum,sea_water_practical_salinity,qcFlag 
SCCF RECON,ioos:station:SCCF:12:1,2012-04-01T00:00:00Z,26.4966,-82.1479,2.386,34.71,1111122 
SCCF RECON,ioos:station:SCCF:12:1,2012-04-01T01:00:00Z,26.4966,-82.1479,2.34,34.73,1111122 
SCCF RECON,ioos:station:SCCF:12:1,2012-04-01T02:00:00Z,26.4966,-82.1479,2.28,34.71,1111122 
SCCF RECON,ioos:station:SCCF:12:1,2012-04-01T03:00:00Z,26.4966,-82.1479,2.22,34.75,1111122 
SCCF RECON,ioos:station:SCCF:12:1,2012-04-01T04:00:00Z,26.4966,-82.1479,2.13,34.79,1111122 
SCCF RECON,ioos:station:SCCF:12:1,2012-04-01T05:00:00Z,26.4966,-82.1479,2.057,34.81,1111122 
SCCF RECON,ioos:station:SCCF:12:1,2012-04-01T06:00:00Z,26.4966,-82.1479,1.973,34.79,1111122 
SCCF RECON,ioos:station:SCCF:12:1,2012-04-01T07:00:00Z,26.4966,-82.1479,1.898,34.77,1111122 
SCCF RECON,ioos:station:SCCF:12:1,2012-04-01T08:00:00Z,26.4966,-82.1479,1.859,34.75,1111122 
SCCF RECON,ioos:station:SCCF:12:1,2012-04-01T09:00:00Z,26.4966,-82.1479,1.892,34.8,1111122 
SCCF RECON,ioos:station:SCCF:12:1,2012-04-01T10:00:00Z,26.4966,-82.1479,1.978,34.89,1111122 
SCCF RECON,ioos:station:SCCF:12:1,2012-04-01T11:00:00Z,26.4966,-82.1479,2.07,34.85,1111122 
SCCF RECON,ioos:station:SCCF:12:1,2012-04-01T12:00:00Z,26.4966,-82.1479,2.15,34.85,1111122 
SCCF RECON,ioos:station:SCCF:12:1,2012-04-01T13:00:00Z,26.4966,-82.1479,2.21,34.85,1111122 
SCCF RECON,ioos:station:SCCF:12:1,2012-04-01T14:00:00Z,26.4966,-82.1479,2.28,34.84,1111122 
SCCF RECON,ioos:station:SCCF:12:1,2012-04-01T15:00:00Z,26.4966,-82.1479,2.325,34.85,1111122 
SCCF RECON,ioos:station:SCCF:12:1,2012-04-01T16:00:00Z,26.4966,-82.1479,2.337,34.86,1111122 
SCCF RECON,ioos:station:SCCF:12:1,2012-04-01T17:00:00Z,26.4966,-82.1479,2.298,34.85,1111122 
SCCF RECON,ioos:station:SCCF:12:1,2012-04-01T18:00:00Z,26.4966,-82.1479,2.223,34.85,1111122 
SCCF RECON,ioos:station:SCCF:12:1,2012-04-01T19:00:00Z,26.4966,-82.1479,2.139,34.84,1111122 
SCCF RECON,ioos:station:SCCF:12:1,2012-04-01T20:00:00Z,26.4966,-82.1479,2.112,34.87,1111122 
SCCF RECON,ioos:station:SCCF:12:1,2012-04-01T21:00:00Z,26.4966,-82.1479,2.117,34.85,1111122 
SCCF RECON,ioos:station:SCCF:12:1,2012-04-01T22:00:00Z,26.4966,-82.1479,2.163,34.87,1111122 
SCCF RECON,ioos:station:SCCF:12:1,2012-04-01T23:00:00Z,26.4966,-82.1479,2.239,35.0,1111122 
SCCF RECON,ioos:station:SCCF:12:1,2012-04-02T00:00:00Z,26.4966,-82.1479,2.318,35.13,1111122 
SCCF RECON,ioos:station:SCCF:12:1,2012-04-02T01:00:00Z,26.4966,-82.1479,2.363,35.23,1111122 
SCCF RECON,ioos:station:SCCF:12:1,2012-04-02T02:00:00Z,26.4966,-82.1479,2.345,35.19,1111122 
SCCF RECON,ioos:station:SCCF:12:1,2012-04-02T03:00:00Z,26.4966,-82.1479,2.281,35.17,1111122 
SCCF RECON,ioos:station:SCCF:12:1,2012-04-02T04:00:00Z,26.4966,-82.1479,2.203,35.17,1111122 
SCCF RECON,ioos:station:SCCF:12:1,2012-04-02T05:00:00Z,26.4966,-82.1479,2.118,35.17,1111122 
SCCF RECON,ioos:station:SCCF:12:1,2012-04-02T06:00:00Z,26.4966,-82.1479,2.03,35.18,1111122 
SCCF RECON,ioos:station:SCCF:12:1,2012-04-02T07:00:00Z,26.4966,-82.1479,1.946,35.19,1111122 
SCCF RECON,ioos:station:SCCF:12:1,2012-04-02T08:00:00Z,26.4966,-82.1479,1.869,35.22,1111122 
SCCF RECON,ioos:station:SCCF:12:1,2012-04-02T09:00:00Z,26.4966,-82.1479,1.82,35.2,1111122 
SCCF RECON,ioos:station:SCCF:12:1,2012-04-02T10:00:00Z,26.4966,-82.1479,1.85,35.21,1111122 
SCCF RECON,ioos:station:SCCF:12:1,2012-04-02T11:00:00Z,26.4966,-82.1479,1.944,35.18,1111122 
SCCF RECON,ioos:station:SCCF:12:1,2012-04-02T12:00:00Z,26.4966,-82.1479,2.059,35.16,1111122 
SCCF RECON,ioos:station:SCCF:12:1,2012-04-02T13:00:00Z,26.4966,-82.1479,2.17,35.18,1111122 
SCCF RECON,ioos:station:SCCF:12:1,2012-04-02T14:00:00Z,26.4966,-82.1479,2.265,35.18,1111122 
SCCF RECON,ioos:station:SCCF:12:1,2012-04-02T15:00:00Z,26.4966,-82.1479,2.336,35.16,1111122 
SCCF RECON,ioos:station:SCCF:12:1,2012-04-02T16:00:00Z,26.4966,-82.1479,2.36,35.17,1111122 
SCCF RECON,ioos:station:SCCF:12:1,2012-04-02T17:00:00Z,26.4966,-82.1479,2.323,35.28,1111122 
SCCF RECON,ioos:station:SCCF:12:1,2012-04-02T18:00:00Z,26.4966,-82.1479,2.24,35.26,1111122 
SCCF RECON,ioos:station:SCCF:12:1,2012-04-02T19:00:00Z,26.4966,-82.1479,2.153,35.22,1111122 
SCCF RECON,ioos:station:SCCF:12:1,2012-04-02T20:00:00Z,26.4966,-82.1479,2.08,35.22,1111122 
SCCF RECON,ioos:station:SCCF:12:1,2012-04-02T21:00:00Z,26.4966,-82.1479,2.04,35.21,1111122 
SCCF RECON,ioos:station:SCCF:12:1,2012-04-02T22:00:00Z,26.4966,-82.1479,2.056,35.24,1111122 
SCCF RECON,ioos:station:SCCF:12:1,2012-04-02T23:00:00Z,26.4966,-82.1479,2.139,35.18,1111122 
SCCF RECON,ioos:station:SCCF:12:1,2012-04-03T00:00:00Z,26.4966,-82.1479,2.24,35.17,1111122 
SCCF RECON,ioos:station:SCCF:12:1,2012-04-03T01:00:00Z,26.4966,-82.1479,2.338,35.18,1111122 
SCCF RECON,ioos:station:SCCF:12:1,2012-04-03T02:00:00Z,26.4966,-82.1479,2.408,35.19,1111122 
SCCF RECON,ioos:station:SCCF:12:1,2012-04-03T03:00:00Z,26.4966,-82.1479,2.441,35.17,1111122 
SCCF RECON,ioos:station:SCCF:12:1,2012-04-03T04:00:00Z,26.4966,-82.1479,2.42,35.18,1111122 
SCCF RECON,ioos:station:SCCF:12:1,2012-04-03T05:00:00Z,26.4966,-82.1479,2.34,35.17,1111122 
SCCF RECON,ioos:station:SCCF:12:1,2012-04-03T06:00:00Z,26.4966,-82.1479,2.22,35.16,1111122 
SCCF RECON,ioos:station:SCCF:12:1,2012-04-03T07:00:00Z,26.4966,-82.1479,2.09,35.16,1111122 
SCCF RECON,ioos:station:SCCF:12:1,2012-04-03T08:00:00Z,26.4966,-82.1479,1.99,35.17,1111122 
SCCF RECON,ioos:station:SCCF:12:1,2012-04-03T09:00:00Z,26.4966,-82.1479,1.9,35.19,1111122 
SCCF RECON,ioos:station:SCCF:12:1,2012-04-03T10:00:00Z,26.4966,-82.1479,1.86,35.2,1111122 
SCCF RECON,ioos:station:SCCF:12:1,2012-04-03T11:00:00Z,26.4966,-82.1479,1.91,35.22,1111122 
SCCF RECON,ioos:station:SCCF:12:1,2012-04-03T12:00:00Z,26.4966,-82.1479,2.039,35.19,1111122 
SCCF RECON,ioos:station:SCCF:12:1,2012-04-03T13:00:00Z,26.4966,-82.1479,2.176,35.19,1111122 
SCCF RECON,ioos:station:SCCF:12:1,2012-04-03T14:00:00Z,26.4966,-82.1479,2.3,35.18,1111122 
SCCF RECON,ioos:station:SCCF:12:1,2012-04-03T15:00:00Z,26.4966,-82.1479,2.381,35.16,1111122 
SCCF RECON,ioos:station:SCCF:12:1,2012-04-03T16:00:00Z,26.4966,-82.1479,2.404,35.17,1111122 
SCCF RECON,ioos:station:SCCF:12:1,2012-04-03T17:00:00Z,26.4966,-82.1479,2.36,35.24,1111122 
SCCF RECON,ioos:station:SCCF:12:1,2012-04-03T18:00:00Z,26.4966,-82.1479,2.26,35.24,1111122 
SCCF RECON,ioos:station:SCCF:12:1,2012-04-03T19:00:00Z,26.4966,-82.1479,2.144,35.22,1111122 
SCCF RECON,ioos:station:SCCF:12:1,2012-04-03T20:00:00Z,26.4966,-82.1479,2.035,35.21,1111122 
SCCF RECON,ioos:station:SCCF:12:1,2012-04-03T21:00:00Z,26.4966,-82.1479,1.95,35.21,1111122 
SCCF RECON,ioos:station:SCCF:12:1,2012-04-03T22:00:00Z,26.4966,-82.1479,1.94,35.27,1111122 
SCCF RECON,ioos:station:SCCF:12:1,2012-04-03T23:00:00Z,26.4966,-82.1479,2.009,35.26,1111122 
SCCF RECON,ioos:station:SCCF:12:1,2012-04-04T00:00:00Z,26.4966,-82.1479,2.11,35.23,1111122 
SCCF RECON,ioos:station:SCCF:12:1,2012-04-04T01:00:00Z,26.4966,-82.1479,2.23,35.22,1111122 
SCCF RECON,ioos:station:SCCF:12:1,2012-04-04T02:00:00Z,26.4966,-82.1479,2.34,35.21,1111122 
SCCF RECON,ioos:station:SCCF:12:1,2012-04-04T03:00:00Z,26.4966,-82.1479,2.44,35.21,1111122 
SCCF RECON,ioos:station:SCCF:12:1,2012-04-04T04:00:00Z,26.4966,-82.1479,2.471,35.21,1111122 
SCCF RECON,ioos:station:SCCF:12:1,2012-04-04T05:00:00Z,26.4966,-82.1479,2.434,35.27,1111122 
SCCF RECON,ioos:station:SCCF:12:1,2012-04-04T06:00:00Z,26.4966,-82.1479,2.329,35.33,1111122 
SCCF RECON,ioos:station:SCCF:12:1,2012-04-04T07:00:00Z,26.4966,-82.1479,2.19,35.29,1111122 
SCCF RECON,ioos:station:SCCF:12:1,2012-04-04T08:00:00Z,26.4966,-82.1479,2.07,35.27,1111122 
SCCF RECON,ioos:station:SCCF:12:1,2012-04-04T09:00:00Z,26.4966,-82.1479,1.97,35.27,1111122 
SCCF RECON,ioos:station:SCCF:12:1,2012-04-04T10:00:00Z,26.4966,-82.1479,1.9,35.29,1111122 
SCCF RECON,ioos:station:SCCF:12:1,2012-04-04T11:00:00Z,26.4966,-82.1479,1.911,35.28,1111122 
SCCF RECON,ioos:station:SCCF:12:1,2012-04-04T12:00:00Z,26.4966,-82.1479,2.033,35.27,1111122 
SCCF RECON,ioos:station:SCCF:12:1,2012-04-04T13:00:00Z,26.4966,-82.1479,2.201,35.25,1111122 
SCCF RECON,ioos:station:SCCF:12:1,2012-04-04T14:00:00Z,26.4966,-82.1479,2.332,35.24,1111122 
SCCF RECON,ioos:station:SCCF:12:1,2012-04-04T15:00:00Z,26.4966,-82.1479,2.43,35.26,1111122 
SCCF RECON,ioos:station:SCCF:12:1,2012-04-04T16:00:00Z,26.4966,-82.1479,2.482,35.29,1111122 
SCCF RECON,ioos:station:SCCF:12:1,2012-04-04T17:00:00Z,26.4966,-82.1479,2.487,35.28,1111122 
SCCF RECON,ioos:station:SCCF:12:1,2012-04-04T18:00:00Z,26.4966,-82.1479,2.429,35.27,1111122 
SCCF RECON,ioos:station:SCCF:12:1,2012-04-04T19:00:00Z,26.4966,-82.1479,2.332,35.19,1111122 
SCCF RECON,ioos:station:SCCF:12:1,2012-04-04T20:00:00Z,26.4966,-82.1479,2.194,35.1,1111122 
SCCF RECON,ioos:station:SCCF:12:1,2012-04-04T21:00:00Z,26.4966,-82.1479,2.062,35.08,1111122 
SCCF RECON,ioos:station:SCCF:12:1,2012-04-04T22:00:00Z,26.4966,-82.1479,1.95,35.09,1111122 
SCCF RECON,ioos:station:SCCF:12:1,2012-04-04T23:00:00Z,26.4966,-82.1479,1.914,35.08,1111122 
SCCF RECON,ioos:station:SCCF:12:1,2012-04-05T00:00:00Z,26.4966,-82.1479,1.99,35.15,1111122 
SCCF RECON,ioos:station:SCCF:12:1,2012-04-05T01:00:00Z,26.4966,-82.1479,2.162,35.21,1111122 
SCCF RECON,ioos:station:SCCF:12:1,2012-04-05T02:00:00Z,26.4966,-82.1479,2.33,35.18,1111122 
SCCF RECON,ioos:station:SCCF:12:1,2012-04-05T03:00:00Z,26.4966,-82.1479,2.45,35.15,1111122 
SCCF RECON,ioos:station:SCCF:12:1,2012-04-05T04:00:00Z,26.4966,-82.1479,2.555,35.09,1111122 
SCCF RECON,ioos:station:SCCF:12:1,2012-04-05T05:00:00Z,26.4966,-82.1479,2.63,35.1,1111122 
SCCF RECON,ioos:station:SCCF:12:1,2012-04-05T06:00:00Z,26.4966,-82.1479,2.475,35.07,1111122 
SCCF RECON,ioos:station:SCCF:12:1,2012-04-05T07:00:00Z,26.4966,-82.1479,2.29,35.13,1111122 
SCCF RECON,ioos:station:SCCF:12:1,2012-04-05T08:00:00Z,26.4966,-82.1479,2.16,35.19,1111122 
SCCF RECON,ioos:station:SCCF:12:1,2012-04-05T09:00:00Z,26.4966,-82.1479,2.088,35.16,1111122 
SCCF RECON,ioos:station:SCCF:12:1,2012-04-05T10:00:00Z,26.4966,-82.1479,2.04,35.14,1111122 
SCCF RECON,ioos:station:SCCF:12:1,2012-04-05T11:00:00Z,26.4966,-82.1479,1.971,35.15,1111122 
SCCF RECON,ioos:station:SCCF:12:1,2012-04-05T12:00:00Z,26.4966,-82.1479,1.996,35.14,1111122 
SCCF RECON,ioos:station:SCCF:12:1,2012-04-05T13:00:00Z,26.4966,-82.1479,2.157,35.15,1111122 
SCCF RECON,ioos:station:SCCF:12:1,2012-04-05T14:00:00Z,26.4966,-82.1479,2.325,35.14,1111122 
SCCF RECON,ioos:station:SCCF:12:1,2012-04-05T15:00:00Z,26.4966,-82.1479,2.46,35.17,1111122 
SCCF RECON,ioos:station:SCCF:12:1,2012-04-05T16:00:00Z,26.4966,-82.1479,2.562,35.16,1111122 
SCCF RECON,ioos:station:SCCF:12:1,2012-04-05T17:00:00Z,26.4966,-82.1479,2.603,35.17,1111122 
SCCF RECON,ioos:station:SCCF:12:1,2012-04-05T18:00:00Z,26.4966,-82.1479,2.535,35.18,1111122 
SCCF RECON,ioos:station:SCCF:12:1,2012-04-05T19:00:00Z,26.4966,-82.1479,2.386,35.01,1111122 
SCCF RECON,ioos:station:SCCF:12:1,2012-04-05T20:00:00Z,26.4966,-82.1479,2.24,34.97,1111122 
SCCF RECON,ioos:station:SCCF:12:1,2012-04-05T21:00:00Z,26.4966,-82.1479,2.098,34.97,1111122 
SCCF RECON,ioos:station:SCCF:12:1,2012-04-05T22:00:00Z,26.4966,-82.1479,1.989,34.99,1111122 
SCCF RECON,ioos:station:SCCF:12:1,2012-04-05T23:00:00Z,26.4966,-82.1479,1.91,35.14,1111122 
SCCF RECON,ioos:station:SCCF:12:1,2012-04-06T00:00:00Z,26.4966,-82.1479,1.893,35.2,1111122 
SCCF RECON,ioos:station:SCCF:12:1,2012-04-06T01:00:00Z,26.4966,-82.1479,1.97,35.17,1111122 
SCCF RECON,ioos:station:SCCF:12:1,2012-04-06T02:00:00Z,26.4966,-82.1479,2.121,35.14,1111122 
SCCF RECON,ioos:station:SCCF:12:1,2012-04-06T03:00:00Z,26.4966,-82.1479,2.283,35.2,1111122 
SCCF RECON,ioos:station:SCCF:12:1,2012-04-06T04:00:00Z,26.4966,-82.1479,2.375,35.21,1111122 
SCCF RECON,ioos:station:SCCF:12:1,2012-04-06T05:00:00Z,26.4966,-82.1479,2.494,35.25,1111122 
SCCF RECON,ioos:station:SCCF:12:1,2012-04-06T06:00:00Z,26.4966,-82.1479,2.558,35.2,1111122 
SCCF RECON,ioos:station:SCCF:12:1,2012-04-06T07:00:00Z,26.4966,-82.1479,2.55,35.2,1111122 
SCCF RECON,ioos:station:SCCF:12:1,2012-04-06T08:00:00Z,26.4966,-82.1479,2.4,35.15,1111122 
SCCF RECON,ioos:station:SCCF:12:1,2012-04-06T09:00:00Z,26.4966,-82.1479,2.239,35.31,1111122 
SCCF RECON,ioos:station:SCCF:12:1,2012-04-06T10:00:00Z,26.4966,-82.1479,2.192,35.18,1111122 
SCCF RECON,ioos:station:SCCF:12:1,2012-04-06T11:00:00Z,26.4966,-82.1479,2.184,35.22,1111122 
SCCF RECON,ioos:station:SCCF:12:1,2012-04-06T12:00:00Z,26.4966,-82.1479,2.147,35.2,1111122 
SCCF RECON,ioos:station:SCCF:12:1,2012-04-06T13:00:00Z,26.4966,-82.1479,2.18,35.24,1111122 
SCCF RECON,ioos:station:SCCF:12:1,2012-04-06T14:00:00Z,26.4966,-82.1479,2.345,35.29,1111122 
SCCF RECON,ioos:station:SCCF:12:1,2012-04-06T15:00:00Z,26.4966,-82.1479,2.518,35.47,1111122 
SCCF RECON,ioos:station:SCCF:12:1,2012-04-06T16:00:00Z,26.4966,-82.1479,2.608,35.33,1111122 
SCCF RECON,ioos:station:SCCF:12:1,2012-04-06T17:00:00Z,26.4966,-82.1479,2.639,35.33,1111122 
SCCF RECON,ioos:station:SCCF:12:1,2012-04-06T18:00:00Z,26.4966,-82.1479,2.583,35.33,1111122 
SCCF RECON,ioos:station:SCCF:12:1,2012-04-06T19:00:00Z,26.4966,-82.1479,2.453,35.35,1111122 
SCCF RECON,ioos:station:SCCF:12:1,2012-04-06T20:00:00Z,26.4966,-82.1479,2.314,35.35,1111122 
SCCF RECON,ioos:station:SCCF:12:1,2012-04-06T21:00:00Z,26.4966,-82.1479,2.167,35.38,1111122 
SCCF RECON,ioos:station:SCCF:12:1,2012-04-06T22:00:00Z,26.4966,-82.1479,2.044,35.52,1111122 
SCCF RECON,ioos:station:SCCF:12:1,2012-04-06T23:00:00Z,26.4966,-82.1479,1.938,35.52,1111122 
SCCF RECON,ioos:station:SCCF:12:1,2012-04-07T00:00:00Z,26.4966,-82.1479,1.844,35.48,1111122 
SCCF RECON,ioos:station:SCCF:12:1,2012-04-07T01:00:00Z,26.4966,-82.1479,1.804,35.49,1111122 
SCCF RECON,ioos:station:SCCF:12:1,2012-04-07T02:00:00Z,26.4966,-82.1479,1.852,35.4,1111122 
SCCF RECON,ioos:station:SCCF:12:1,2012-04-07T03:00:00Z,26.4966,-82.1479,2.012,35.41,1111122 
SCCF RECON,ioos:station:SCCF:12:1,2012-04-07T04:00:00Z,26.4966,-82.1479,2.181,35.47,1111122 
SCCF RECON,ioos:station:SCCF:12:1,2012-04-07T05:00:00Z,26.4966,-82.1479,2.323,35.44,1111122 
SCCF RECON,ioos:station:SCCF:12:1,2012-04-07T06:00:00Z,26.4966,-82.1479,2.397,35.5,1111122 
SCCF RECON,ioos:station:SCCF:12:1,2012-04-07T07:00:00Z,26.4966,-82.1479,2.419,35.43,1111122 
SCCF RECON,ioos:station:SCCF:12:1,2012-04-07T08:00:00Z,26.4966,-82.1479,2.336,35.42,1111122 
SCCF RECON,ioos:station:SCCF:12:1,2012-04-07T09:00:00Z,26.4966,-82.1479,2.193,35.48,1111122 
SCCF RECON,ioos:station:SCCF:12:1,2012-04-07T10:00:00Z,26.4966,-82.1479,2.089,35.55,1111122 
SCCF RECON,ioos:station:SCCF:12:1,2012-04-07T11:00:00Z,26.4966,-82.1479,2.012,35.64,1111122 
SCCF RECON,ioos:station:SCCF:12:1,2012-04-07T12:00:00Z,26.4966,-82.1479,1.972,35.6,1111122 
SCCF RECON,ioos:station:SCCF:12:1,2012-04-07T13:00:00Z,26.4966,-82.1479,1.993,35.63,1111122 
SCCF RECON,ioos:station:SCCF:12:1,2012-04-07T14:00:00Z,26.4966,-82.1479,2.1,35.51,1111122 
SCCF RECON,ioos:station:SCCF:12:1,2012-04-07T15:00:00Z,26.4966,-82.1479,2.274,35.49,1111122 
SCCF RECON,ioos:station:SCCF:12:1,2012-04-07T16:00:00Z,26.4966,-82.1479,2.413,35.51,1111122 
SCCF RECON,ioos:station:SCCF:12:1,2012-04-07T17:00:00Z,26.4966,-82.1479,2.508,35.49,1111122 
SCCF RECON,ioos:station:SCCF:12:1,2012-04-07T18:00:00Z,26.4966,-82.1479,2.551,35.5,1111122 
SCCF RECON,ioos:station:SCCF:12:1,2012-04-07T19:00:00Z,26.4966,-82.1479,2.512,35.51,1111122 
SCCF RECON,ioos:station:SCCF:12:1,2012-04-07T20:00:00Z,26.4966,-82.1479,2.4,35.63,1111122 
SCCF RECON,ioos:station:SCCF:12:1,2012-04-07T21:00:00Z,26.4966,-82.1479,2.235,35.65,1111122 
SCCF RECON,ioos:station:SCCF:12:1,2012-04-07T22:00:00Z,26.4966,-82.1479,2.102,35.65,1111122 
SCCF RECON,ioos:station:SCCF:12:1,2012-04-07T23:00:00Z,26.4966,-82.1479,1.972,35.62,1111122 
SCCF RECON,ioos:station:SCCF:12:1,2012-04-08T00:00:00Z,26.4966,-82.1479,1.859,35.64,1111122 
SCCF RECON,ioos:station:SCCF:12:1,2012-04-08T01:00:00Z,26.4966,-82.1479,1.764,35.65,1111122 
SCCF RECON,ioos:station:SCCF:12:1,2012-04-08T02:00:00Z,26.4966,-82.1479,1.717,35.68,1111122 
SCCF RECON,ioos:station:SCCF:12:1,2012-04-08T03:00:00Z,26.4966,-82.1479,1.8,35.67,1111122 
SCCF RECON,ioos:station:SCCF:12:1,2012-04-08T04:00:00Z,26.4966,-82.1479,1.972,35.65,1111122 
SCCF RECON,ioos:station:SCCF:12:1,2012-04-08T05:00:00Z,26.4966,-82.1479,2.115,35.66,1111122 
SCCF RECON,ioos:station:SCCF:12:1,2012-04-08T06:00:00Z,26.4966,-82.1479,2.239,35.66,1111122 
SCCF RECON,ioos:station:SCCF:12:1,2012-04-08T07:00:00Z,26.4966,-82.1479,2.305,35.67,1111122 
SCCF RECON,ioos:station:SCCF:12:1,2012-04-08T08:00:00Z,26.4966,-82.1479,2.291,35.67,1111122 
SCCF RECON,ioos:station:SCCF:12:1,2012-04-08T09:00:00Z,26.4966,-82.1479,2.202,35.69,1111122 
SCCF RECON,ioos:station:SCCF:12:1,2012-04-08T10:00:00Z,26.4966,-82.1479,2.125,35.68,1111122 
SCCF RECON,ioos:station:SCCF:12:1,2012-04-08T11:00:00Z,26.4966,-82.1479,2.08,35.69,1111122 
SCCF RECON,ioos:station:SCCF:12:1,2012-04-08T12:00:00Z,26.4966,-82.1479,2.06,35.69,1111122 
SCCF RECON,ioos:station:SCCF:12:1,2012-04-08T13:00:00Z,26.4966,-82.1479,2.071,35.7,1111122 
SCCF RECON,ioos:station:SCCF:12:1,2012-04-08T14:00:00Z,26.4966,-82.1479,2.12,35.76,1111122 
SCCF RECON,ioos:station:SCCF:12:1,2012-04-08T15:00:00Z,26.4966,-82.1479,2.252,35.69,1111122 
SCCF RECON,ioos:station:SCCF:12:1,2012-04-08T16:00:00Z,26.4966,-82.1479,2.412,35.63,1111122 
SCCF RECON,ioos:station:SCCF:12:1,2012-04-08T17:00:00Z,26.4966,-82.1479,2.538,35.64,1111122 
SCCF RECON,ioos:station:SCCF:12:1,2012-04-08T18:00:00Z,26.4966,-82.1479,2.605,35.64,1111122 
SCCF RECON,ioos:station:SCCF:12:1,2012-04-08T19:00:00Z,26.4966,-82.1479,2.589,35.64,1111122 
SCCF RECON,ioos:station:SCCF:12:1,2012-04-08T20:00:00Z,26.4966,-82.1479,2.485,35.68,1111122 
SCCF RECON,ioos:station:SCCF:12:1,2012-04-08T21:00:00Z,26.4966,-82.1479,2.338,35.82,1111122 
SCCF RECON,ioos:station:SCCF:12:1,2012-04-08T22:00:00Z,26.4966,-82.1479,2.194,35.73,1111122 
SCCF RECON,ioos:station:SCCF:12:1,2012-04-08T23:00:00Z,26.4966,-82.1479,2.055,35.71,1111122 
SCCF RECON,ioos:station:SCCF:12:1,2012-04-09T00:00:00Z,26.4966,-82.1479,1.927,35.74,1111122 
SCCF RECON,ioos:station:SCCF:12:1,2012-04-09T01:00:00Z,26.4966,-82.1479,1.814,35.74,1111122 
SCCF RECON,ioos:station:SCCF:12:1,2012-04-09T02:00:00Z,26.4966,-82.1479,1.727,35.68,1111122 
SCCF RECON,ioos:station:SCCF:12:1,2012-04-09T03:00:00Z,26.4966,-82.1479,1.71,35.67,1111122 
SCCF RECON,ioos:station:SCCF:12:1,2012-04-09T04:00:00Z,26.4966,-82.1479,1.85,35.67,1111122 
SCCF RECON,ioos:station:SCCF:12:1,2012-04-09T05:00:00Z,26.4966,-82.1479,2.009,35.67,1111122 
SCCF RECON,ioos:station:SCCF:12:1,2012-04-09T06:00:00Z,26.4966,-82.1479,2.14,35.68,1111122 
SCCF RECON,ioos:station:SCCF:12:1,2012-04-09T07:00:00Z,26.4966,-82.1479,2.254,35.71,1111122 
SCCF RECON,ioos:station:SCCF:12:1,2012-04-09T08:00:00Z,26.4966,-82.1479,2.33,35.79,1111122 
SCCF RECON,ioos:station:SCCF:12:1,2012-04-09T09:00:00Z,26.4966,-82.1479,2.36,35.74,1111122 
SCCF RECON,ioos:station:SCCF:12:1,2012-04-09T10:00:00Z,26.4966,-82.1479,2.32,35.7,1111122 
SCCF RECON,ioos:station:SCCF:12:1,2012-04-09T11:00:00Z,26.4966,-82.1479,2.258,35.66,1111122 
SCCF RECON,ioos:station:SCCF:12:1,2012-04-09T12:00:00Z,26.4966,-82.1479,2.209,35.65,1111122 
SCCF RECON,ioos:station:SCCF:12:1,2012-04-09T13:00:00Z,26.4966,-82.1479,2.19,35.66,1111122 
SCCF RECON,ioos:station:SCCF:12:1,2012-04-09T14:00:00Z,26.4966,-82.1479,2.22,35.64,1111122 
SCCF RECON,ioos:station:SCCF:12:1,2012-04-09T15:00:00Z,26.4966,-82.1479,2.318,35.65,1111122 
SCCF RECON,ioos:station:SCCF:12:1,2012-04-09T16:00:00Z,26.4966,-82.1479,2.443,35.7,1111122 
SCCF RECON,ioos:station:SCCF:12:1,2012-04-09T17:00:00Z,26.4966,-82.1479,2.56,35.72,1111122 
SCCF RECON,ioos:station:SCCF:12:1,2012-04-09T18:00:00Z,26.4966,-82.1479,2.64,35.75,1111122 
SCCF RECON,ioos:station:SCCF:12:1,2012-04-09T19:00:00Z,26.4966,-82.1479,2.651,35.76,1111122 
SCCF RECON,ioos:station:SCCF:12:1,2012-04-09T20:00:00Z,26.4966,-82.1479,2.592,35.72,1111122 
SCCF RECON,ioos:station:SCCF:12:1,2012-04-09T21:00:00Z,26.4966,-82.1479,2.487,35.76,1111122 
SCCF RECON,ioos:station:SCCF:12:1,2012-04-09T22:00:00Z,26.4966,-82.1479,2.345,35.72,1111122 
SCCF RECON,ioos:station:SCCF:12:1,2012-04-09T23:00:00Z,26.4966,-82.1479,2.187,35.66,1111122 
SCCF RECON,ioos:station:SCCF:12:1,2012-04-10T00:00:00Z,26.4966,-82.1479,2.053,35.7,1111122 
SCCF RECON,ioos:station:SCCF:12:1,2012-04-10T01:00:00Z,26.4966,-82.1479,1.937,35.71,1111122 
SCCF RECON,ioos:station:SCCF:12:1,2012-04-10T02:00:00Z,26.4966,-82.1479,1.835,35.74,1111122 
SCCF RECON,ioos:station:SCCF:12:1,2012-04-10T03:00:00Z,26.4966,-82.1479,1.756,35.78,1111122 
SCCF RECON,ioos:station:SCCF:12:1,2012-04-10T04:00:00Z,26.4966,-82.1479,1.753,35.76,1111122 
SCCF RECON,ioos:station:SCCF:12:1,2012-04-10T05:00:00Z,26.4966,-82.1479,1.9,35.74,1111122 
SCCF RECON,ioos:station:SCCF:12:1,2012-04-10T06:00:00Z,26.4966,-82.1479,2.059,35.73,1111122 
SCCF RECON,ioos:station:SCCF:12:1,2012-04-10T07:00:00Z,26.4966,-82.1479,2.18,35.71,1111122 
SCCF RECON,ioos:station:SCCF:12:1,2012-04-10T08:00:00Z,26.4966,-82.1479,2.28,35.72,1111122 
SCCF RECON,ioos:station:SCCF:12:1,2012-04-10T09:00:00Z,26.4966,-82.1479,2.344,35.75,1111122 
SCCF RECON,ioos:station:SCCF:12:1,2012-04-10T10:00:00Z,26.4966,-82.1479,2.35,35.79,1111122 
SCCF RECON,ioos:station:SCCF:12:1,2012-04-10T11:00:00Z,26.4966,-82.1479,2.294,35.71,1111122 
SCCF RECON,ioos:station:SCCF:12:1,2012-04-10T12:00:00Z,26.4966,-82.1479,2.24,35.65,1111122 
SCCF RECON,ioos:station:SCCF:12:1,2012-04-10T13:00:00Z,26.4966,-82.1479,2.237,35.59,1111122 
SCCF RECON,ioos:station:SCCF:12:1,2012-04-10T14:00:00Z,26.4966,-82.1479,2.27,35.56,1111122 
SCCF RECON,ioos:station:SCCF:12:1,2012-04-10T15:00:00Z,26.4966,-82.1479,2.314,35.67,1111122 
SCCF RECON,ioos:station:SCCF:12:1,2012-04-10T16:00:00Z,26.4966,-82.1479,2.382,35.77,1111122 
SCCF RECON,ioos:station:SCCF:12:1,2012-04-10T17:00:00Z,26.4966,-82.1479,2.49,35.77,1111122 
SCCF RECON,ioos:station:SCCF:12:1,2012-04-10T18:00:00Z,26.4966,-82.1479,2.597,35.77,1111122 
SCCF RECON,ioos:station:SCCF:12:1,2012-04-10T19:00:00Z,26.4966,-82.1479,2.659,35.76,1111122 
SCCF RECON,ioos:station:SCCF:12:1,2012-04-10T20:00:00Z,26.4966,-82.1479,2.663,35.75,1111122 
SCCF RECON,ioos:station:SCCF:12:1,2012-04-10T21:00:00Z,26.4966,-82.1479,2.61,35.75,1111122 
SCCF RECON,ioos:station:SCCF:12:1,2012-04-10T22:00:00Z,26.4966,-82.1479,2.516,35.75,1111122 
SCCF RECON,ioos:station:SCCF:12:1,2012-04-10T23:00:00Z,26.4966,-82.1479,2.39,35.71,1111122 
SCCF RECON,ioos:station:SCCF:12:1,2012-04-11T00:00:00Z,26.4966,-82.1479,2.254,35.64,1111122 
SCCF RECON,ioos:station:SCCF:12:1,2012-04-11T01:00:00Z,26.4966,-82.1479,2.131,35.63,1111122 
SCCF RECON,ioos:station:SCCF:12:1,2012-04-11T02:00:00Z,26.4966,-82.1479,2.014,35.7,1111122 
SCCF RECON,ioos:station:SCCF:12:1,2012-04-11T03:00:00Z,26.4966,-82.1479,1.914,35.74,1111122 
SCCF RECON,ioos:station:SCCF:12:1,2012-04-11T04:00:00Z,26.4966,-82.1479,1.84,35.75,1111122 
SCCF RECON,ioos:station:SCCF:12:1,2012-04-11T05:00:00Z,26.4966,-82.1479,1.84,35.75,1111122 
SCCF RECON,ioos:station:SCCF:12:1,2012-04-11T06:00:00Z,26.4966,-82.1479,1.978,35.77,1111122 
SCCF RECON,ioos:station:SCCF:12:1,2012-04-11T07:00:00Z,26.4966,-82.1479,2.11,35.77,1111122 
SCCF RECON,ioos:station:SCCF:12:1,2012-04-11T08:00:00Z,26.4966,-82.1479,2.22,35.77,1111122 
SCCF RECON,ioos:station:SCCF:12:1,2012-04-11T09:00:00Z,26.4966,-82.1479,2.299,35.76,1111122 
SCCF RECON,ioos:station:SCCF:12:1,2012-04-11T10:00:00Z,26.4966,-82.1479,2.349,35.76,1111122 
SCCF RECON,ioos:station:SCCF:12:1,2012-04-11T11:00:00Z,26.4966,-82.1479,2.36,35.74,1111122 
SCCF RECON,ioos:station:SCCF:12:1,2012-04-11T12:00:00Z,26.4966,-82.1479,2.33,35.67,1111122 
SCCF RECON,ioos:station:SCCF:12:1,2012-04-11T13:00:00Z,26.4966,-82.1479,2.29,35.63,1111122 
SCCF RECON,ioos:station:SCCF:12:1,2012-04-11T14:00:00Z,26.4966,-82.1479,2.27,35.58,1111122 
SCCF RECON,ioos:station:SCCF:12:1,2012-04-11T15:00:00Z,26.4966,-82.1479,2.287,35.69,1111122 
SCCF RECON,ioos:station:SCCF:12:1,2012-04-11T16:00:00Z,26.4966,-82.1479,2.332,35.65,1111122 
SCCF RECON,ioos:station:SCCF:12:1,2012-04-11T17:00:00Z,26.4966,-82.1479,2.398,35.72,1111122 